sat.trackr.live / text

‹ back to catalog

STARLINK-31079

NORAD 58598 · 2023-200K

PAYLOAD ACTIVE UNKNOWN

§ Identity

Operator
Country
US
Launch date
2023-12-19
Launch site
AFETR
Launch vehicle
Mass (kg)
RCS (m²)

Purposes: comms

External: N2YO · Heavens-Above · Gunter

§ Orbital elements

Epoch: 2026-09-19T19:51:54.627840Z

Period
90.14 min
Inclination
42.9647°
Eccentricity
0.0029377
Mean motion
15.97591671 rev/d
Perigee alt
261.5 km
Apogee alt
300.7 km
Semi-major
6,659.2 km
B*
5.2769e-3
RAAN
60.5452°
Arg perigee
306.7061°
Mean anomaly
53.1118°
Rev number
15,435

§ Raw data

STARLINK-310791 58598U 23200K   26262.82771560  .02423738  43051-2  52769-2 0  99912 58598  42.9647  60.5452 0029377 306.7061  53.1118 15.97591671154350

JSON: /api/v1/satellites/58598 · /tle

For live sub-satellite position, see the globe view (requires WebGL).

§ Visibility from observer

Set your observer location to see the next 7 days of passes ≥ 10°. The values pass through the URL so the page stays shareable.

No JS? Fill the form by hand. The geolocation button needs JavaScript.